QPF
0.00 0.00 0.00 0.00 0.00 0.00 0.00 0.00 0.00 0.00 0.00 0.00 0.00 0.00 0.00 0.00 0.00 0.00 0.00 0.00 0.00 0.00 0.00 0.00 0.00 0.00 0.00 0.00 0.00 0.00 0.00 0.00 0.00 0.00 0.00 0.00 0.00 0.00 0.00 0.00 0.00 0.00 0.00 0.00 0.00 0.00 0.00
0.00 0.00 0.00 0.00 0.00 0.00 0.00 0.00 0.00 0.00 0.00 0.00 0.00 0.00 0.00 0.00 0.00 0.00 0.00 0.00 0.00 0.00 0.00 0.00 0.00 0.00 0.00 0.00 0.00 0.00 0.00 0.00 0.00 0.00 0.00 0.00 0.00 0.00 0.00 0.00 0.00 0.00 0.00 0.00 0.00 0.00 0.00
0.01 0.00 0.00 0.00 0.00 0.00 0.00 0.00 0.00 0.00 0.00 0.00 0.00 0.00 0.00 0.00 0.00 0.00 0.00 0.00 0.00 0.00 0.00 0.00 0.00 0.00 0.00 0.00 0.00 0.00 0.00 0.00 0.00 0.00 0.00 0.00 0.00 0.00 0.00 0.00 0.00 0.00 0.00 0.00 0.00 0.00 0.00
0.01 0.00 0.00 0.00 0.00 0.00 0.00 0.00 0.00 0.00 0.00 0.00 0.00 0.00 0.00 0.00 0.00 0.00 0.00 0.00 0.00 0.00 0.00 0.00 0.00 0.00 0.00 0.00 0.00 0.00 0.00 0.00 0.00 0.00 0.00 0.00 0.00 0.00 0.00 0.00 0.00 0.00 0.00 0.00 0.00 0.00 0.00
0.01 0.01 0.00 0.00 0.00 0.00 0.00 0.00 0.00 0.00 0.00 0.00 0.00 0.00 0.00 0.00 0.00 0.00 0.00 0.00 0.00 0.00 0.00 0.00 0.00 0.00 0.00 0.00 0.00 0.00 0.00 0.01 0.00 0.00 0.00 0.00 0.00 0.00 0.00 0.00 0.00 0.00 0.00 0.00 0.00 0.00 0.00
0.01 0.01 0.00 0.00 0.00 0.00 0.00 0.00 0.00 0.00 0.00 0.00 0.00 0.00 0.00 0.00 0.00 0.00 0.00 0.00 0.00 0.00 0.00 0.00 0.00 0.00 0.00 0.00 0.00 0.00 0.00 0.01 0.00 0.00 0.00 0.00 0.00 0.00 0.00 0.00 0.00 0.00 0.00 0.00 0.00 0.00 0.00
0.00 0.00 0.00 0.00 0.00 0.00 0.00 0.00 0.00 0.00 0.00 0.00 0.00 0.00 0.00 0.00 0.01 0.00 0.00 0.00 0.00 0.00 0.00 0.00 0.00 0.00 0.00 0.00 0.00 0.00 0.00 0.00 0.00 0.00 0.00 0.00 0.00 0.00 0.00 0.00 0.00 0.00 0.00 0.00 0.00 0.00 0.00
0.00 0.00 0.01 0.00 0.00 0.00 0.00 0.00 0.00 0.00 0.00 0.00 0.00 0.00 0.00 0.00 0.01 0.00 0.00 0.00 0.00 0.00 0.00 0.00 0.00 0.00 0.00 0.00 0.00 0.00 0.00 0.00 0.00 0.00 0.00 0.00 0.00 0.00 0.00 0.00 0.00 0.00 0.00 0.00 0.00 0.00 0.00
0.00 0.00 0.01 0.01 0.00 0.00 0.00 0.00 0.00 0.00 0.00 0.00 0.00 0.00 0.00 0.00 0.00 0.00 0.00 0.00 0.00 0.00 0.00 0.00 0.00 0.00 0.00 0.00 0.00 0.00 0.00 0.00 0.00 0.00 0.00 0.00 0.00 0.00 0.00 0.00 0.00 0.00 0.00 0.00 0.00 0.00 0.00
0.00 0.00 0.00 0.00 0.00 0.00 0.00 0.00 0.00 0.00 0.00 0.00 0.00 0.00 0.00 0.00 0.00 0.00 0.00 0.00 0.00 0.00 0.00 0.00 0.00 0.00 0.00 0.00 0.00 0.00 0.00 0.00 0.00 0.00 0.00 0.00 0.00 0.00 0.00 0.00 0.00 0.00 0.00 0.00 0.00 0.00 0.00
0.00 0.00 0.00 0.00 0.00 0.00 0.00 0.00 0.00 0.00 0.00 0.00 0.00 0.00 0.00 0.00 0.00 0.00 0.00 0.00 0.00 0.00 0.00 0.00 0.00 0.00 0.00 0.00 0.00 0.00 0.00 0.00 0.00 0.00 0.00 0.00 0.00 0.00 0.00 0.00 0.00 0.00 0.00 0.00 0.00 0.00 0.00
0.00 0.00 0.00 0.00 0.00 0.00 0.00 0.00 0.00 0.00 0.00 0.00 0.00 0.00 0.00 0.00 0.00 0.00 0.00 0.00 0.00 0.00 0.00 0.00 0.00 0.00 0.00 0.00 0.00 0.00 0.00 0.00 0.00 0.00 0.00 0.00 0.00 0.00 0.00 0.00 0.00 0.00 0.00 0.00 0.00 0.00 0.00
0.00 0.00 0.00 0.00 0.00 0.00 0.00 0.00 0.00 0.00 0.00 0.00 0.00 0.00 0.00 0.00 0.00 0.00 0.00 0.00 0.00 0.00 0.00 0.00 0.00 0.00 0.00 0.00 0.00 0.00 0.00 0.00 0.00 0.00 0.00 0.00 0.00 0.00 0.00 0.00 0.00 0.00 0.00 0.00 0.00 0.00 0.00
0.01 0.01 0.00 0.00 0.00 0.00 0.00 0.00 0.00 0.00 0.00 0.00 0.00 0.00 0.00 0.00 0.00 0.00 0.00 0.00 0.00 0.00 0.00 0.00 0.00 0.00 0.00 0.00 0.00 0.00 0.00 0.00 0.00 0.00 0.00 0.00 0.00 0.00 0.00 0.00 0.00 0.00 0.00 0.00 0.00 0.00 0.00
0.03 0.02 0.01 0.01 0.01 0.00 0.00 0.00 0.00 0.00 0.00 0.00 0.00 0.01 0.00 0.00 0.00 0.00 0.00 0.00 0.00 0.00 0.00 0.00 0.00 0.00 0.00 0.00 0.00 0.00 0.00 0.00 0.00 0.00 0.00 0.00 0.00 0.00 0.00 0.00 0.00 0.00 0.00 0.00 0.00 0.00 0.00
0.02 0.03 0.02 0.02 0.02 0.02 0.01 0.00 0.00 0.00 0.00 0.00 0.00 0.00 0.00 0.00 0.00 0.00 0.00 0.00 0.00 0.00 0.00 0.00 0.00 0.00 0.00 0.00 0.00 0.00 0.00 0.00 0.00 0.00 0.00 0.00 0.00 0.00 0.00 0.00 0.00 0.00 0.00 0.00 0.00 0.00 0.00
0.01 0.02 0.03 0.03 0.04 0.04 0.01 0.00 0.00 0.00 0.00 0.00 0.00 0.00 0.00 0.00 0.00 0.00 0.00 0.00 0.00 0.00 0.00 0.00 0.00 0.00 0.00 0.00 0.00 0.00 0.00 0.00 0.00 0.00 0.00 0.00 0.00 0.00 0.00 0.00 0.00 0.00 0.00 0.00 0.00 0.00 0.00
0.01 0.02 0.03 0.07 0.06 0.07 0.03 0.00 0.00 0.00 0.00 0.00 0.00 0.00 0.00 0.00 0.00 0.00 0.00 0.00 0.00 0.00 0.00 0.00 0.00 0.00 0.00 0.00 0.00 0.00 0.00 0.00 0.00 0.00 0.00 0.00 0.00 0.00 0.00 0.00 0.00 0.00 0.00 0.00 0.00 0.00 0.00
0.01 0.01 0.04 0.18 0.12 0.13 0.06 0.00 0.00 0.00 0.00 0.00 0.00 0.01 0.00 0.00 0.00 0.00 0.00 0.00 0.00 0.00 0.00 0.00 0.00 0.00 0.00 0.00 0.00 0.00 0.00 0.00 0.00 0.00 0.00 0.00 0.00 0.00 0.00 0.00 0.00 0.00 0.00 0.00 0.00 0.00 0.00
0.01 0.02 0.10 0.23 0.17 0.17 0.07 0.00 0.00 0.00 0.00 0.00 0.00 0.02 0.00 0.00 0.00 0.00 0.00 0.00 0.00 0.00 0.00 0.00 0.00 0.00 0.00 0.00 0.00 0.00 0.00 0.00 0.00 0.00 0.00 0.00 0.00 0.00 0.00 0.00 0.00 0.00 0.00 0.00 0.00 0.00 0.00
0.02 0.06 0.13 0.20 0.23 0.15 0.05 0.00 0.00 0.00 0.00 0.00 0.00 0.00 0.00 0.00 0.00 0.00 0.00 0.00 0.00 0.00 0.00 0.00 0.00 0.00 0.00 0.00 0.00 0.00 0.00 0.00 0.00 0.00 0.00 0.00 0.00 0.00 0.00 0.00 0.00 0.00 0.00 0.00 0.00 0.00 0.00
0.07 0.14 0.14 0.15 0.17 0.12 0.01 0.00 0.00 0.00 0.00 0.00 0.00 0.00 0.00 0.00 0.00 0.00 0.00 0.00 0.00 0.00 0.00 0.00 0.00 0.00 0.00 0.00 0.00 0.00 0.00 0.00 0.00 0.00 0.00 0.00 0.00 0.00 0.00 0.00 0.00 0.00 0.00 0.00 0.00 0.00 0.00
0.13 0.16 0.16 0.11 0.07 0.04 0.00 0.00 0.00 0.00 0.00 0.00 0.00 0.00 0.00 0.00 0.00 0.00 0.00 0.00 0.00 0.00 0.00 0.00 0.00 0.00 0.00 0.00 0.00 0.00 0.00 0.00 0.00 0.00 0.00 0.00 0.00 0.00 0.00 0.00 0.00 0.00 0.00 0.00 0.00 0.00 0.00
0.12 0.15 0.14 0.13 0.03 0.00 0.00 0.00 0.00 0.00 0.00 0.00 0.00 0.00 0.00 0.00 0.00 0.00 0.00 0.00 0.00 0.00 0.00 0.00 0.00 0.00 0.00 0.00 0.00 0.00 0.00 0.00 0.00 0.00 0.00 0.00 0.00 0.00 0.00 0.00 0.00 0.00 0.00 0.00 0.00 0.00 0.00
0.11 0.12 0.09 0.07 0.01 0.00 0.00 0.00 0.00 0.00 0.00 0.00 0.00 0.00 0.00 0.00 0.00 0.00 0.00 0.00 0.00 0.00 0.00 0.00 0.00 0.00 0.00 0.00 0.00 0.00 0.00 0.00 0.00 0.00 0.00 0.00 0.00 0.00 0.00 0.00 0.00 0.00 0.00 0.00 0.00 0.00 0.00
0.10 0.07 0.01 0.01 0.00 0.00 0.00 0.00 0.00 0.00 0.00 0.00 0.00 0.00 0.00 0.00 0.00 0.00 0.00 0.00 0.00 0.00 0.00 0.00 0.00 0.00 0.00 0.00 0.00 0.00 0.00 0.00 0.00 0.00 0.00 0.00 0.00 0.00 0.00 0.00 0.00 0.00 0.00 0.00 0.00 0.00 0.00
0.06 0.03 0.00 0.00 0.00 0.00 0.00 0.00 0.00 0.00 0.00 0.00 0.00 0.00 0.00 0.00 0.00 0.00 0.00 0.00 0.00 0.00 0.00 0.00 0.00 0.00 0.00 0.00 0.00 0.00 0.00 0.00 0.00 0.00 0.00 0.00 0.00 0.00 0.00 0.00 0.00 0.00 0.00 0.00 0.00 0.00 0.00
0.03 0.01 0.00 0.00 0.00 0.00 0.00 0.00 0.00 0.00 0.00 0.00 0.00 0.00 0.00 0.00 0.00 0.00 0.00 0.00 0.00 0.00 0.00 0.00 0.00 0.00 0.00 0.00 0.00 0.00 0.00 0.00 0.00 0.00 0.00 0.00 0.00 0.00 0.00 0.00 0.00 0.00 0.00 0.00 0.00 0.00 0.00
0.00 0.00 0.00 0.00 0.00 0.00 0.00 0.00 0.00 0.00 0.00 0.00 0.00 0.00 0.00 0.00 0.00 0.00 0.00 0.00 0.00 0.00 0.00 0.00 0.00 0.00 0.00 0.00 0.00 0.00 0.00 0.00 0.00 0.00 0.00 0.00 0.00 0.00 0.00 0.00 0.00 0.00 0.00 0.00 0.00 0.00 0.00
MSLP
1017.80 1018.15 1018.29 1018.60 1018.96 1019.03 1019.25 1019.48 1019.73 1019.86 1019.78 1019.61 1019.29 1019.84 1019.68 1019.52 1019.54 1019.10 1019.14 1019.13 1018.77 1018.88 1019.11 1018.99 1018.74 1018.38 1017.54 1015.26 1011.78 1010.88 1011.40 1011.90 1012.05 1011.88 1011.18 1010.85 1010.66 1010.37 1010.02 1009.93 1009.99 1009.74 1009.14 1009.34 1009.50 1009.71 1009.19
1017.14 1017.25 1017.62 1017.92 1018.25 1018.56 1018.55 1018.76 1018.99 1019.48 1019.40 1019.56 1018.99 1019.38 1019.41 1019.08 1019.21 1018.99 1018.82 1018.89 1018.79 1018.83 1019.05 1018.95 1018.74 1018.29 1016.85 1013.41 1010.65 1011.04 1011.35 1011.79 1011.42 1011.42 1011.10 1010.87 1010.38 1010.42 1009.97 1009.94 1009.79 1009.31 1009.28 1009.39 1009.62 1009.70 1010.06
1016.98 1016.70 1016.87 1017.33 1017.59 1017.86 1018.07 1018.33 1018.62 1018.98 1019.20 1019.14 1018.91 1019.04 1019.14 1018.93 1018.81 1018.75 1018.66 1018.72 1018.60 1018.87 1019.02 1018.92 1018.80 1018.12 1016.09 1011.97 1010.64 1010.97 1011.11 1011.08 1011.18 1010.91 1010.50 1010.59 1010.76 1010.65 1010.13 1009.71 1010.04 1009.61 1009.44 1009.46 1009.72 1009.75 1010.13
1016.49 1016.53 1016.28 1016.65 1017.06 1017.33 1017.38 1017.79 1018.00 1018.38 1018.85 1018.85 1018.64 1018.79 1019.01 1018.89 1018.64 1018.52 1018.47 1018.39 1018.51 1018.95 1019.04 1018.87 1018.69 1017.85 1013.65 1010.90 1010.65 1010.78 1010.75 1010.70 1010.96 1011.05 1010.86 1011.00 1011.18 1010.90 1010.48 1010.04 1009.82 1009.37 1009.24 1008.75 1009.81 1009.92 1010.61
1015.95 1015.83 1015.72 1015.91 1016.36 1016.77 1016.90 1017.19 1017.62 1017.99 1018.43 1018.45 1018.38 1018.37 1018.46 1018.55 1018.40 1018.46 1018.32 1018.34 1018.50 1018.96 1019.01 1018.76 1018.17 1016.87 1011.95 1010.71 1010.48 1009.64 1010.06 1009.89 1010.51 1011.11 1011.23 1011.05 1011.10 1010.60 1010.37 1009.67 1009.26 1009.14 1008.12 1008.63 1009.78 1010.34 1010.32
1015.29 1015.30 1015.23 1015.20 1015.56 1016.07 1016.46 1016.54 1016.84 1017.46 1017.82 1017.96 1018.02 1018.15 1018.23 1018.19 1018.10 1018.26 1018.43 1018.51 1018.65 1019.07 1018.68 1018.15 1017.08 1015.84 1011.47 1009.98 1009.63 1009.59 1009.80 1009.96 1009.81 1010.78 1011.12 1011.01 1010.42 1009.80 1009.39 1008.85 1008.02 1008.03 1008.39 1008.86 1009.47 1010.63 1010.37
1014.58 1014.63 1014.63 1014.61 1014.88 1015.23 1015.83 1016.03 1016.29 1016.87 1017.17 1017.59 1017.68 1017.63 1017.83 1017.78 1017.83 1018.11 1018.41 1018.32 1018.49 1017.83 1016.71 1014.28 1013.31 1012.26 1010.48 1009.91 1009.59 1009.21 1009.07 1009.35 1009.55 1010.11 1009.63 1010.39 1009.56 1008.76 1008.39 1008.52 1008.48 1008.28 1008.59 1009.09 1010.30 1011.35 1011.11
1013.89 1013.94 1014.06 1014.07 1014.15 1014.50 1015.02 1015.47 1015.73 1016.22 1016.68 1017.29 1017.53 1017.40 1017.55 1017.44 1017.74 1018.08 1018.11 1016.39 1014.26 1013.98 1013.13 1012.54 1012.37 1011.70 1010.66 1010.32 1009.30 1008.73 1008.75 1008.69 1008.86 1008.79 1009.15 1009.76 1009.31 1009.31 1009.27 1009.09 1008.79 1008.77 1009.06 1009.89 1011.15 1011.63 1011.33
1013.10 1013.25 1013.48 1013.52 1013.44 1013.71 1014.22 1014.72 1015.08 1015.60 1015.93 1016.68 1017.07 1017.27 1017.26 1017.35 1017.76 1018.19 1017.10 1015.10 1013.69 1013.31 1012.50 1011.58 1011.16 1010.36 1009.73 1009.83 1008.92 1008.43 1008.55 1008.55 1008.84 1008.74 1009.07 1008.81 1009.57 1009.70 1009.23 1009.16 1009.10 1009.39 1009.31 1010.05 1010.38 1011.50 1011.53
1012.20 1012.44 1012.69 1012.99 1012.98 1012.98 1013.48 1014.01 1014.46 1015.15 1015.45 1016.06 1016.64 1016.85 1017.26 1017.16 1017.93 1016.38 1015.61 1013.93 1013.95 1013.92 1012.06 1010.77 1009.94 1009.12 1009.40 1009.21 1008.89 1008.97 1008.98 1008.69 1009.21 1009.40 1009.71 1009.73 1009.94 1009.65 1009.43 1009.53 1009.77 1009.61 1010.27 1010.23 1010.63 1010.67 1010.27
1011.43 1011.67 1011.74 1012.15 1012.40 1012.53 1013.02 1013.38 1013.81 1014.37 1014.93 1015.53 1016.16 1016.24 1017.22 1016.33 1015.64 1015.15 1013.84 1013.52 1013.43 1013.25 1011.41 1010.12 1009.19 1008.87 1008.97 1008.98 1008.71 1008.97 1009.35 1008.78 1008.84 1009.37 1010.07 1010.10 1009.88 1009.83 1009.69 1010.17 1010.26 1010.39 1010.74 1010.47 1010.59 1010.31 1010.49
1010.22 1010.97 1011.09 1011.24 1011.48 1011.80 1012.33 1012.96 1013.35 1013.93 1014.35 1015.00 1015.63 1015.71 1017.21 1017.12 1015.99 1014.14 1013.84 1013.54 1012.90 1012.25 1010.48 1009.50 1008.85 1008.61 1008.70 1008.98 1009.05 1009.04 1009.11 1009.13 1009.70 1009.75 1009.85 1010.17 1010.49 1010.34 1010.47 1010.84 1010.59 1011.09 1010.93 1010.94 1010.97 1010.75 1010.27
1009.27 1009.66 1010.39 1010.56 1010.76 1010.89 1011.45 1012.11 1012.77 1013.54 1014.11 1014.55 1015.11 1015.39 1016.76 1015.39 1014.05 1013.94 1013.62 1012.96 1011.86 1010.78 1010.27 1009.24 1008.60 1008.58 1008.46 1008.87 1009.12 1008.97 1008.96 1009.21 1009.10 1009.51 1009.65 1010.23 1010.48 1010.87 1010.90 1010.73 1011.25 1010.94 1010.46 1010.48 1010.83 1010.76 1010.31
1008.37 1008.51 1009.30 1009.59 1010.16 1010.36 1010.66 1011.31 1012.10 1012.90 1013.77 1014.32 1014.74 1015.23 1015.85 1014.89 1014.18 1014.13 1013.33 1012.07 1010.54 1009.68 1009.23 1009.03 1008.66 1008.67 1008.56 1008.92 1009.34 1009.39 1009.35 1009.43 1009.93 1009.66 1009.46 1009.52 1010.55 1010.74 1011.06 1010.77 1010.31 1010.76 1010.69 1010.71 1010.94 1011.19 1010.74
1007.10 1007.79 1008.25 1008.64 1009.27 1009.76 1009.89 1010.57 1011.36 1012.25 1013.32 1014.11 1014.69 1015.63 1015.45 1013.66 1014.45 1014.47 1012.64 1011.11 1009.43 1009.13 1008.67 1008.55 1008.71 1008.48 1008.75 1009.12 1009.08 1009.37 1009.63 1009.60 1010.15 1010.17 1009.43 1009.78 1010.39 1011.19 1011.45 1011.28 1011.35 1011.38 1011.39 1011.90 1011.96 1012.79 1011.96
1006.04 1006.78 1007.32 1007.79 1008.33 1008.84 1009.18 1009.82 1010.75 1011.67 1012.70 1013.59 1013.81 1014.71 1012.88 1012.22 1013.28 1013.79 1012.16 1010.08 1009.23 1009.07 1008.78 1008.43 1007.98 1008.22 1008.30 1008.78 1009.09 1009.36 1009.80 1010.42 1010.51 1010.69 1010.50 1010.31 1010.68 1011.41 1011.69 1011.58 1011.84 1011.43 1011.93 1012.07 1012.11 1012.19 1011.55
1005.07 1005.64 1006.43 1006.91 1007.56 1007.95 1008.45 1008.99 1010.07 1011.05 1012.11 1012.75 1012.72 1012.58 1011.47 1011.73 1012.55 1012.13 1010.34 1009.36 1009.02 1008.84 1008.69 1008.37 1007.99 1008.31 1008.27 1008.77 1008.98 1009.34 1009.81 1010.74 1010.90 1010.97 1010.88 1010.70 1010.80 1011.78 1011.94 1011.37 1010.93 1011.87 1011.72 1012.27 1012.31 1012.68 1011.97
1004.13 1004.79 1005.46 1006.00 1006.72 1007.21 1007.56 1008.03 1009.27 1010.53 1011.60 1012.72 1011.41 1010.83 1011.35 1011.41 1011.10 1010.18 1009.18 1008.86 1008.79 1008.48 1008.69 1008.42 1008.30 1008.25 1008.43 1008.83 1009.13 1009.47 1009.95 1010.58 1011.31 1011.24 1011.09 1011.63 1011.41 1011.49 1011.47 1011.97 1012.04 1011.70 1011.42 1011.78 1012.06 1012.76 1013.04
1003.40 1004.01 1004.55 1005.10 1005.78 1006.34 1006.79 1007.34 1008.47 1009.77 1010.47 1011.00 1009.88 1009.77 1011.35 1011.10 1009.24 1009.23 1009.05 1008.51 1008.46 1008.31 1008.17 1008.24 1008.13 1008.32 1008.83 1009.04 1009.59 1010.09 1010.74 1011.83 1012.01 1011.89 1011.82 1011.98 1011.89 1011.71 1011.92 1012.36 1012.29 1011.80 1011.81 1011.99 1012.51 1012.78 1012.47
1002.61 1003.18 1003.67 1004.35 1004.90 1005.54 1005.89 1006.59 1007.70 1008.85 1009.02 1008.94 1008.57 1008.72 1010.04 1010.15 1008.91 1008.16 1008.05 1007.94 1008.15 1008.29 1008.12 1008.25 1008.36 1008.65 1008.98 1009.41 1009.96 1010.38 1011.15 1012.18 1012.61 1012.66 1012.85 1012.61 1012.17 1011.72 1011.55 1011.43 1011.58 1011.66 1011.75 1011.91 1011.78 1012.02 1011.50
1001.76 1002.29 1002.70 1003.31 1004.13 1004.67 1004.75 1005.86 1006.75 1008.04 1008.35 1008.35 1007.39 1006.66 1006.78 1007.59 1008.15 1007.62 1007.57 1007.52 1007.63 1007.87 1008.16 1008.27 1008.32 1008.37 1008.67 1009.46 1010.01 1010.48 1011.23 1012.24 1012.87 1013.25 1013.24 1013.01 1012.72 1012.94 1012.87 1012.87 1012.65 1012.12 1011.73 1011.71 1011.45 1011.19 1011.04
1000.92 1001.37 1002.09 1002.62 1002.72 1003.39 1004.31 1005.43 1006.28 1007.46 1008.27 1007.54 1006.08 1006.53 1007.25 1006.84 1007.59 1007.55 1007.28 1007.19 1007.29 1007.83 1007.92 1008.03 1008.17 1008.74 1009.21 1009.51 1009.50 1009.98 1010.72 1011.52 1011.91 1013.29 1013.32 1013.77 1013.90 1014.15 1013.89 1013.81 1013.46 1012.71 1011.96 1011.47 1011.17 1010.85 1010.57
1000.07 1000.67 1001.40 1001.63 1002.53 1002.70 1003.59 1004.79 1005.75 1006.93 1007.12 1005.97 1006.38 1006.52 1005.86 1007.57 1007.17 1007.19 1006.99 1007.02 1007.27 1007.70 1008.81 1008.75 1008.52 1009.11 1009.92 1010.53 1010.68 1010.81 1011.52 1011.73 1012.06 1012.68 1013.62 1014.18 1014.60 1014.92 1014.73 1014.68 1014.12 1013.28 1011.54 1011.06 1010.66 1010.45 1010.23
999.30 1000.07 1000.84 1001.03 1001.35 1002.59 1003.36 1004.22 1005.41 1006.30 1005.88 1004.62 1005.35 1005.50 1005.53 1007.07 1007.15 1006.92 1007.10 1007.15 1007.45 1007.77 1008.40 1009.51 1009.55 1009.78 1011.61 1011.69 1011.68 1011.94 1012.33 1012.79 1013.27 1013.97 1014.23 1014.81 1015.18 1015.61 1015.62 1015.51 1013.96 1011.51 1011.54 1011.20 1010.57 1010.16 1009.76
999.10 999.66 1000.21 1000.34 1001.08 1002.16 1003.18 1004.04 1005.05 1005.91 1005.82 1005.08 1005.19 1005.18 1005.25 1006.87 1006.93 1007.23 1007.21 1007.26 1008.20 1008.70 1009.32 1010.11 1011.00 1011.26 1011.80 1011.89 1011.99 1012.76 1013.29 1013.64 1014.23 1014.75 1014.99 1015.22 1015.46 1016.02 1016.11 1014.90 1012.85 1011.39 1011.56 1011.53 1011.07 1009.86 1009.57
998.51 998.96 999.55 1000.37 1001.21 1002.09 1003.05 1003.89 1004.61 1005.32 1005.80 1005.31 1005.27 1005.42 1004.97 1006.11 1006.91 1006.76 1007.09 1007.59 1008.08 1008.79 1010.03 1011.33 1012.19 1012.63 1012.59 1012.47 1012.52 1012.82 1013.11 1013.35 1014.19 1014.99 1015.69 1015.91 1015.93 1015.61 1016.11 1015.02 1013.09 1011.74 1011.97 1012.01 1011.70 1010.55 1010.47
998.09 998.66 999.27 1000.30 1001.31 1002.03 1002.64 1003.44 1004.25 1004.99 1005.58 1005.33 1005.41 1005.52 1005.23 1005.75 1006.67 1007.03 1006.82 1007.20 1008.02 1008.47 1009.35 1011.16 1012.25 1012.78 1012.87 1012.66 1013.07 1013.33 1013.38 1013.77 1013.95 1014.53 1015.40 1015.98 1015.95 1015.77 1015.41 1014.55 1012.94 1011.97 1012.23 1012.33 1011.83 1011.49 1011.09
997.85 998.60 999.54 1000.32 1000.84 1001.44 1002.38 1003.21 1003.98 1004.58 1005.11 1005.34 1005.57 1005.73 1005.54 1005.95 1007.29 1007.55 1007.46 1007.44 1007.96 1007.90 1008.47 1010.79 1011.82 1012.34 1012.69 1012.72 1013.17 1013.59 1013.96 1014.11 1014.09 1014.06 1014.42 1014.55 1015.04 1015.23 1015.23 1014.24 1012.90 1012.31 1012.49 1012.26 1011.83 1011.50 1011.62
998.19 998.82 999.43 999.92 1000.53 1001.29 1002.12 1002.89 1003.53 1004.15 1004.73 1004.79 1005.28 1006.04 1005.91 1006.30 1007.82 1008.22 1008.37 1008.29 1008.14 1007.64 1008.11 1009.82 1009.69 1010.20 1010.87 1011.84 1013.36 1014.06 1014.46 1014.89 1014.42 1013.96 1014.32 1014.23 1013.87 1013.79 1013.74 1012.55 1012.13 1012.27 1011.83 1011.94 1012.15 1012.02 1011.84
Thickness
5630 5631 5633 5632 5631 5632 5631 5631 5630 5630 5631 5633 5633 5624 5624 5623 5620 5619 5615 5611 5612 5608 5603 5603 5606 5611 5619 5633 5651 5669 5667 5663 5662 5664 5664 5664 5662 5665 5661 5671 5674 5673 5685 5688 5691 5687 5694
5626 5629 5629 5629 5629 5628 5630 5630 5630 5627 5628 5625 5630 5624 5620 5623 5618 5616 5614 5609 5608 5604 5599 5601 5604 5610 5622 5634 5669 5666 5664 5662 5664 5663 5662 5664 5665 5671 5669 5670 5672 5684 5685 5685 5685 5688 5687
5615 5622 5624 5624 5625 5626 5625 5626 5625 5624 5623 5623 5624 5621 5618 5619 5618 5613 5612 5606 5605 5599 5596 5598 5601 5608 5620 5646 5667 5665 5665 5665 5665 5666 5663 5669 5670 5666 5674 5671 5677 5680 5673 5681 5680 5687 5682
5609 5611 5618 5619 5619 5620 5624 5623 5624 5623 5620 5619 5620 5617 5614 5614 5614 5611 5609 5605 5601 5595 5594 5597 5600 5607 5635 5664 5666 5665 5668 5667 5668 5668 5669 5672 5672 5669 5670 5679 5675 5673 5679 5674 5677 5683 5679
5601 5607 5612 5615 5615 5616 5619 5620 5619 5619 5616 5616 5616 5617 5615 5613 5611 5608 5606 5601 5598 5593 5592 5596 5603 5611 5643 5666 5661 5674 5673 5668 5667 5665 5667 5672 5670 5666 5670 5668 5666 5670 5674 5674 5667 5678 5679
5594 5599 5605 5610 5612 5612 5613 5618 5618 5616 5616 5614 5613 5613 5611 5611 5609 5606 5601 5597 5595 5591 5593 5598 5607 5614 5651 5656 5667 5671 5674 5672 5669 5662 5658 5661 5667 5666 5672 5672 5660 5670 5670 5675 5669 5669 5680
5585 5592 5597 5603 5606 5609 5608 5613 5615 5613 5614 5611 5611 5613 5610 5610 5607 5603 5597 5599 5600 5603 5606 5634 5638 5640 5653 5661 5669 5668 5677 5671 5670 5661 5660 5660 5663 5666 5677 5681 5680 5683 5678 5673 5668 5663 5669
5574 5582 5589 5595 5600 5603 5604 5607 5611 5611 5610 5606 5606 5609 5607 5608 5604 5600 5595 5609 5625 5628 5631 5637 5635 5638 5651 5655 5654 5667 5679 5666 5665 5661 5670 5660 5658 5670 5674 5677 5679 5678 5672 5665 5658 5661 5669
5562 5569 5576 5585 5593 5598 5600 5602 5607 5608 5609 5605 5604 5604 5605 5605 5600 5595 5601 5615 5627 5630 5627 5636 5639 5644 5651 5655 5657 5663 5672 5668 5660 5659 5661 5667 5663 5666 5671 5672 5671 5668 5671 5664 5668 5661 5668
5550 5557 5565 5573 5581 5590 5595 5598 5601 5602 5605 5603 5601 5603 5599 5603 5595 5605 5607 5622 5622 5622 5624 5631 5639 5649 5652 5658 5652 5667 5671 5669 5656 5652 5655 5657 5665 5666 5669 5665 5667 5663 5668 5670 5663 5665 5663
5534 5545 5556 5562 5572 5579 5586 5592 5596 5599 5601 5600 5598 5602 5594 5603 5608 5607 5620 5621 5624 5624 5597 5637 5642 5662 5656 5649 5659 5658 5669 5670 5658 5655 5655 5652 5659 5663 5664 5660 5665 5660 5666 5670 5669 5671 5667
5526 5529 5542 5555 5566 5573 5579 5583 5588 5591 5595 5596 5596 5600 5588 5592 5596 5612 5616 5619 5625 5612 5600 5631 5647 5644 5644 5647 5649 5659 5660 5669 5663 5654 5660 5657 5663 5665 5662 5659 5665 5662 5662 5663 5664 5663 5648
5512 5522 5528 5541 5556 5568 5574 5580 5581 5583 5587 5591 5593 5595 5584 5598 5609 5610 5615 5620 5612 5605 5630 5631 5638 5645 5647 5641 5643 5651 5651 5651 5652 5641 5643 5652 5654 5659 5662 5655 5657 5662 5662 5644 5635 5638 5641
5494 5510 5519 5532 5542 5556 5567 5574 5576 5578 5580 5583 5588 5589 5586 5594 5602 5605 5614 5617 5606 5627 5630 5641 5642 5644 5639 5643 5639 5643 5645 5645 5649 5655 5652 5649 5634 5652 5656 5658 5660 5657 5660 5643 5620 5628 5645
5477 5492 5505 5521 5533 5544 5557 5565 5570 5573 5573 5576 5579 5576 5580 5602 5597 5600 5614 5604 5622 5630 5642 5639 5639 5636 5635 5641 5645 5643 5642 5647 5646 5651 5651 5645 5640 5651 5649 5655 5655 5645 5643 5650 5631 5615 5625
5448 5469 5488 5502 5520 5535 5547 5555 5560 5566 5568 5571 5579 5575 5595 5607 5601 5599 5609 5616 5631 5638 5641 5645 5636 5644 5635 5641 5641 5643 5641 5642 5643 5647 5653 5650 5633 5643 5644 5651 5648 5651 5650 5635 5638 5614 5618
5421 5442 5463 5484 5502 5522 5536 5547 5550 5557 5560 5567 5577 5582 5598 5604 5600 5602 5611 5624 5632 5641 5643 5641 5644 5638 5645 5639 5646 5643 5643 5640 5644 5645 5650 5652 5646 5632 5638 5642 5648 5638 5639 5634 5639 5627 5626
5389 5415 5444 5468 5486 5504 5523 5537 5543 5547 5552 5556 5580 5586 5591 5599 5597 5610 5618 5627 5633 5639 5641 5643 5648 5648 5646 5645 5642 5643 5641 5644 5642 5646 5642 5640 5639 5625 5635 5638 5641 5644 5645 5644 5630 5621 5615
5368 5388 5421 5453 5476 5492 5506 5523 5536 5541 5551 5560 5581 5588 5582 5591 5597 5599 5615 5626 5632 5635 5641 5642 5645 5650 5647 5642 5632 5636 5636 5628 5631 5636 5637 5637 5631 5620 5623 5630 5635 5637 5641 5640 5630 5624 5617
5364 5380 5402 5435 5467 5487 5500 5513 5526 5537 5552 5567 5581 5578 5581 5589 5607 5618 5617 5623 5626 5634 5639 5643 5642 5645 5640 5634 5633 5627 5626 5622 5623 5627 5611 5628 5631 5634 5630 5638 5641 5632 5634 5637 5639 5622 5631
5358 5379 5400 5430 5458 5482 5499 5509 5522 5529 5545 5564 5579 5591 5605 5588 5595 5615 5622 5627 5627 5627 5638 5643 5641 5646 5643 5625 5626 5623 5626 5619 5619 5609 5621 5628 5625 5624 5623 5623 5625 5632 5636 5635 5634 5639 5625
5359 5380 5401 5429 5461 5477 5495 5503 5516 5523 5535 5560 5579 5581 5587 5603 5603 5608 5609 5620 5627 5629 5637 5641 5643 5640 5640 5630 5638 5627 5629 5626 5629 5617 5621 5617 5617 5609 5610 5614 5616 5619 5632 5638 5639 5640 5636
5368 5392 5414 5433 5453 5475 5492 5502 5516 5524 5541 5565 5572 5579 5598 5573 5597 5604 5611 5622 5626 5633 5624 5635 5645 5638 5631 5628 5629 5632 5626 5627 5628 5623 5614 5612 5603 5605 5612 5600 5604 5598 5628 5636 5638 5638 5634
5383 5409 5427 5446 5465 5476 5490 5507 5518 5529 5549 5575 5577 5585 5590 5577 5589 5602 5611 5621 5624 5632 5630 5625 5634 5635 5617 5621 5623 5621 5617 5614 5613 5606 5610 5596 5600 5592 5598 5580 5590 5640 5633 5632 5634 5637 5640
5406 5422 5438 5455 5469 5482 5496 5511 5521 5531 5546 5566 5577 5586 5589 5564 5588 5595 5606 5616 5613 5617 5617 5621 5617 5619 5619 5618 5615 5607 5602 5597 5595 5596 5599 5601 5599 5582 5586 5600 5618 5635 5624 5620 5617 5630 5637
5426 5440 5451 5462 5475 5490 5503 5514 5527 5535 5545 5564 5574 5581 5595 5578 5582 5602 5605 5609 5607 5612 5609 5601 5603 5606 5608 5607 5607 5602 5603 5611 5599 5596 5589 5589 5588 5599 5576 5588 5591 5621 5614 5613 5612 5607 5618
5437 5453 5468 5480 5488 5500 5511 5523 5532 5540 5547 5561 5569 5578 5590 5588 5590 5597 5603 5605 5612 5615 5613 5601 5598 5598 5601 5601 5597 5602 5607 5601 5603 5591 5577 5581 5576 5581 5581 5581 5599 5612 5605 5602 5591 5597 5604
5460 5469 5478 5490 5502 5514 5521 5529 5537 5544 5551 5559 5567 5574 5585 5586 5582 5591 5601 5606 5606 5618 5614 5602 5600 5598 5595 5595 5598 5599 5593 5596 5598 5601 5590 5592 5583 5573 5564 5569 5575 5597 5591 5585 5594 5594 5589
5474 5484 5494 5506 5515 5522 5529 5536 5542 5548 5553 5562 5566 5568 5580 5585 5581 5585 5592 5601 5610 5620 5618 5606 5618 5613 5614 5602 5589 5584 5576 5562 5587 5595 5587 5588 5593 5592 5589 5597 5594 5588 5591 5589 5582 5579 5578